Probability
0 0 0 0 0 0 0 0 0 0 0 0 0 3 8 10 10 10 12 16 21 29 34 35 36 41 48 53 55 56 51 44 39 37 37 38 38 37 38 39 40 40 37 35
0 0 0 0 0 0 0 0 0 0 0 0 1 3 7 10 10 10 13 16 19 26 32 36 37 42 48 52 53 52 46 41 38 37 37 38 38 38 38 39 39 39 38 37
0 0 0 0 0 0 0 0 0 0 0 0 1 3 8 10 10 10 14 17 19 23 30 35 37 40 44 48 48 44 39 36 35 35 36 37 38 38 38 38 38 37 36 36
0 0 0 0 0 0 0 0 0 0 0 0 0 2 6 9 11 12 15 19 21 24 31 36 37 36 37 39 39 37 35 33 32 33 34 35 36 36 36 35 34 33 31 30
0 0 0 0 0 0 0 0 1 0 0 0 0 1 5 9 14 17 20 22 24 25 31 36 36 34 31 29 29 30 33 33 31 30 32 33 33 33 33 31 30 29 27 26
0 0 0 0 0 0 0 0 0 0 0 0 0 1 5 11 16 20 22 25 27 27 30 33 32 29 25 20 18 21 27 30 29 28 30 32 31 31 29 27 27 27 26 24
0 0 0 0 0 0 0 0 0 0 0 0 0 1 6 12 16 17 19 24 28 27 26 25 24 22 20 15 12 15 20 24 23 23 26 30 29 28 26 25 25 25 23 22
0 0 0 0 0 0 0 0 0 0 1 1 0 2 7 11 11 11 13 19 24 23 19 17 17 18 17 15 13 13 16 18 17 17 21 26 27 24 21 20 20 21 20 18
0 0 0 0 0 0 0 0 0 0 1 1 1 2 5 7 5 4 6 12 17 16 13 13 14 16 16 15 13 13 14 14 13 13 15 19 21 20 16 15 16 17 16 16
0 0 0 0 0 0 0 0 0 0 1 1 0 1 3 3 3 2 4 8 11 11 10 12 14 14 14 13 12 13 12 11 10 10 11 12 14 15 14 14 15 15 14 13
1 0 0 0 0 0 0 0 0 0 0 0 0 1 2 3 2 2 3 6 8 9 8 9 11 12 10 10 10 11 10 9 8 7 8 9 11 13 13 13 14 14 13 11
1 0 0 0 0 0 0 0 0 0 0 0 0 1 2 2 1 1 3 6 8 7 5 6 7 8 8 7 8 8 8 7 7 7 8 10 10 11 13 13 12 12 12 11
1 1 0 0 0 0 0 0 0 0 0 0 0 1 1 1 1 2 3 6 7 5 4 4 5 7 7 7 6 6 6 6 6 6 7 9 9 10 12 13 11 10 10 10
2 2 1 0 0 0 0 0 0 0 0 1 1 2 2 2 2 2 4 6 6 4 5 6 6 7 8 6 6 6 6 6 5 5 5 6 7 8 9 10 10 9 9 9
3 3 2 0 0 0 1 0 0 0 1 2 2 2 2 2 1 1 4 6 5 4 5 5 6 6 5 4 4 5 5 5 4 4 3 4 4 5 6 8 9 8 8 9
2 1 1 0 0 0 0 0 0 0 1 1 1 1 1 1 1 1 3 5 4 3 3 3 3 4 3 2 2 3 4 4 4 4 4 3 3 4 6 7 9 9 9 10
1 0 0 0 0 0 0 0 0 0 0 0 0 0 1 2 2 3 3 4 3 1 1 1 2 3 3 2 1 2 4 5 5 4 3 3 3 4 6 7 9 10 11 11
2 1 0 0 0 0 0 0 0 0 1 1 1 1 2 3 3 2 3 3 3 3 2 2 3 3 3 2 1 1 3 4 4 4 3 3 3 4 6 7 8 10 10 11
2 1 0 0 0 0 0 0 0 0 2 2 2 2 2 2 2 2 2 4 5 6 6 4 3 2 1 1 0 1 2 2 3 4 3 2 3 4 5 5 6 8 9 10
1 0 0 0 0 0 0 0 0 0 1 1 1 1 2 3 4 5 5 5 6 7 5 4 2 1 1 1 1 0 0 1 2 2 2 1 2 3 3 4 4 6 8 8
1 0 0 0 0 1 1 1 0 1 1 1 1 1 2 6 9 9 8 6 5 5 3 2 1 0 0 1 1 1 0 1 1 1 1 1 2 2 3 4 5 7 7 6
2 1 0 0 0 1 2 1 1 1 2 2 2 1 3 8 11 10 7 5 4 3 1 0 0 0 0 1 1 1 0 1 0 0 0 1 2 3 4 5 7 9 7 6
3 2 0 0 0 0 1 1 0 1 1 1 1 1 3 6 8 7 5 3 2 2 0 0 0 0 0 0 0 0 0 0 0 0 0 0 1 4 7 8 8 8 7 5
3 2 0 0 0 0 0 0 0 0 0 0 0 1 2 4 5 5 5 4 3 2 1 0 0 0 0 0 0 0 0 0 0 0 0 1 2 4 7 8 6 6 5 4
3 2 1 1 1 1 0 0 0 0 0 0 0 1 3 4 4 5 5 4 3 3 2 1 0 0 0 0 0 0 0 0 0 0 1 1 2 4 5 5 4 3 3 2
3 3 2 2 2 1 0 0 0 0 0 0 1 2 4 5 5 6 6 5 3 3 3 2 1 0 0 0 0 0 0 0 1 1 1 1 2 3 4 3 2 1 1 1
Wind_Speed
11 10 9 10 11 12 12 11 10 9 7 8 9 7 5 5 6 6 6 5 5 5 6 7 7 7 7 6 7 7 6 5 5 4 3 2 2 2 2 2 3 3 2 2
9 9 9 9 11 12 11 11 10 9 7 7 8 8 4 6 7 6 5 4 5 6 7 7 8 6 6 6 7 6 6 6 5 3 3 2 2 2 2 1 2 2 2 2
9 6 7 9 11 11 10 9 8 10 10 9 8 7 6 5 3 4 4 4 5 6 7 7 7 7 6 6 5 5 5 5 5 4 2 2 2 2 2 2 2 3 3 2
9 7 7 9 10 9 10 10 9 10 10 8 8 6 4 3 3 4 4 4 5 6 7 6 6 6 6 6 5 6 5 5 4 4 3 4 3 3 2 2 2 2 2 2
8 8 9 9 9 11 11 10 10 10 10 9 9 7 3 2 4 2 4 5 5 6 6 6 5 5 5 5 5 6 5 4 4 4 3 3 2 2 1 2 2 2 2 2
10 8 7 8 9 9 11 10 10 9 7 8 8 6 2 3 3 1 6 6 6 7 7 6 5 5 5 5 5 5 5 4 3 3 3 3 2 2 2 2 2 2 2 2
9 6 5 6 9 7 8 8 6 5 5 5 5 3 3 3 5 7 6 4 7 7 7 6 4 4 4 4 4 4 5 4 3 2 2 2 2 2 2 2 2 2 2 2
9 6 6 7 8 8 7 6 5 7 6 6 5 1 4 6 8 7 5 6 7 7 6 6 5 4 3 4 3 4 5 4 3 2 2 2 2 2 1 1 1 1 1 2
9 7 7 7 8 7 7 7 8 7 8 6 2 1 4 7 8 6 6 7 6 5 5 6 5 5 3 4 3 4 5 4 3 2 2 2 2 1 0 0 1 1 1 1
9 11 8 7 7 5 6 7 5 4 5 5 3 3 3 6 6 5 6 6 5 5 4 4 4 5 4 4 4 4 4 4 3 2 2 2 2 1 0 0 0 0 0 1
10 9 9 7 6 8 7 6 6 5 5 5 4 3 4 5 5 6 5 5 5 4 4 4 3 4 4 4 4 4 4 4 3 2 2 2 2 1 1 1 1 1 1 1
8 6 7 8 6 8 8 8 6 5 5 6 3 1 5 6 7 7 6 6 6 4 4 4 3 4 3 3 4 4 3 3 3 3 3 3 2 1 1 1 1 1 1 1
9 5 6 5 5 8 8 8 7 4 4 5 5 2 5 7 7 7 6 6 4 4 4 4 4 3 2 3 3 3 3 3 3 3 3 3 2 1 1 1 1 1 1 1
5 5 5 6 8 8 8 9 8 5 4 5 6 4 6 8 8 8 6 5 4 4 3 3 3 3 3 3 2 2 2 3 3 3 3 3 2 1 1 1 1 1 0 1
5 5 7 7 8 6 6 7 7 6 6 5 7 6 6 6 6 5 4 5 5 4 4 3 3 2 2 2 1 2 3 2 2 2 2 2 2 2 2 1 1 1 1 1
4 5 7 8 6 6 6 7 7 7 6 6 7 6 6 5 5 5 5 4 4 4 4 3 2 2 2 1 0 1 2 2 2 2 2 2 2 2 2 1 1 0 1 1
6 6 6 6 6 6 5 8 8 8 9 7 5 5 7 7 6 6 5 4 4 4 3 2 2 2 1 1 1 1 1 2 2 2 1 2 2 2 1 1 1 0 1 1
5 7 4 6 6 3 3 7 8 6 8 9 7 6 7 6 5 4 4 4 5 5 3 3 2 2 1 1 1 1 0 1 1 2 1 1 2 2 1 1 0 0 1 1
2 5 5 5 4 1 4 8 8 7 7 11 10 9 9 7 5 5 7 7 5 4 3 2 2 1 1 1 1 1 1 1 1 2 2 2 2 2 1 1 1 1 1 2
3 3 4 5 5 4 8 11 8 4 3 10 11 9 8 7 5 4 7 7 5 4 2 2 1 1 1 1 1 1 1 1 1 1 2 2 2 1 1 0 1 1 1 2
4 3 4 5 3 2 10 12 7 5 5 8 9 8 8 7 5 4 5 5 4 3 2 2 2 1 1 1 1 1 1 1 1 1 2 2 1 1 1 1 1 2 2 3
5 4 4 4 3 3 11 10 7 5 5 7 8 8 7 5 4 4 4 4 3 3 3 2 2 2 1 1 2 2 1 1 1 1 2 2 1 1 1 1 1 2 2 2
3 4 4 3 2 4 7 6 5 5 6 6 7 7 5 4 4 4 4 4 3 3 3 2 1 2 1 1 2 2 1 1 1 1 1 1 2 1 1 1 1 1 2 2
2 3 3 3 2 5 5 5 6 6 6 7 7 6 6 5 4 3 3 3 3 3 3 2 1 1 2 2 2 1 1 1 1 1 1 1 2 2 1 1 1 0 1 1
7 5 4 4 5 6 5 7 8 7 7 7 7 6 6 5 4 3 2 3 3 3 2 2 2 2 2 2 1 1 1 1 1 1 1 2 2 2 1 1 1 1 1 1
4 4 5 4 5 6 7 8 8 7 7 7 7 6 6 5 4 3 2 2 2 2 2 2 2 1 1 1 1 1 1 1 1 1 1 1 1 1 2 2 1 1 1 1
Wind_Direction
245 237 245 256 259 269 279 276 278 279 274 274 271 259 209 208 215 208 207 179 156 138 132 132 123 123 128 126 130 135 137 143 147 148 153 155 166 174 180 159 144 156 172 176
254 246 259 275 282 280 278 283 287 290 274 274 279 287 255 218 217 207 204 181 141 122 110 118 117 117 127 138 140 140 143 148 149 147 158 178 176 188 176 158 156 177 186 186
279 280 281 283 280 282 283 282 291 294 293 269 264 261 245 221 226 195 160 127 116 122 125 124 125 123 120 119 132 136 134 137 144 148 156 167 157 180 169 173 175 191 185 179
288 292 286 282 283 288 285 290 286 280 278 275 267 269 241 208 208 199 149 121 119 109 113 122 122 123 121 119 121 123 125 133 140 155 169 175 178 184 174 176 171 155 164 177
291 304 297 288 297 295 294 295 284 278 273 283 272 268 249 213 203 176 121 114 113 110 109 110 109 113 123 121 124 128 126 132 151 171 175 183 190 186 151 149 151 150 173 180
291 288 288 299 298 290 297 295 289 276 266 266 269 272 325 23 354 97 94 98 107 106 109 103 97 100 111 119 120 127 134 140 147 177 185 186 185 171 163 165 168 172 176 175
289 283 311 326 315 307 309 308 296 278 261 273 287 293 61 45 35 47 63 78 98 106 107 106 109 117 120 126 124 132 137 140 147 155 181 185 180 184 190 185 179 171 168 175
311 319 343 335 321 312 311 305 290 294 297 297 295 316 82 63 64 62 72 64 78 87 103 113 122 126 131 130 128 132 136 137 140 154 169 174 174 197 207 171 153 162 163 174
323 313 319 313 317 319 312 311 312 301 295 292 304 73 62 48 58 50 60 67 72 77 96 112 119 124 123 112 107 110 114 118 125 115 109 114 119 153 144 125 167 173 176 169
318 308 308 319 309 310 316 329 333 319 311 300 323 16 28 32 35 36 48 54 64 69 73 94 103 108 115 113 110 115 120 121 130 137 136 104 91 94 128 179 134 146 137 149
326 306 309 324 327 341 343 337 336 333 335 315 321 359 20 34 34 28 39 50 49 48 59 78 94 98 103 111 119 125 124 129 132 127 116 98 91 93 145 176 186 183 193 193
332 309 304 308 328 2 352 340 351 342 323 308 304 2 4 28 40 29 27 54 51 42 53 66 78 84 95 112 115 121 128 140 143 139 132 130 132 144 165 164 166 190 202 223
340 325 309 316 346 2 351 346 347 334 320 328 328 16 16 21 24 23 20 46 53 40 43 56 63 73 82 91 105 122 128 139 147 139 128 129 140 154 162 161 161 199 222 268
317 318 325 323 319 328 346 346 343 342 332 341 354 8 18 14 18 14 15 32 42 45 48 60 70 61 54 60 78 109 111 114 125 126 127 130 150 173 175 172 185 199 240 279
332 324 323 322 320 331 1 343 344 9 0 2 357 17 27 13 11 6 18 28 37 40 40 45 63 63 58 59 63 93 108 110 114 128 133 137 149 164 160 170 198 210 252 284
344 322 318 313 327 351 353 352 3 9 22 20 15 22 22 14 22 20 15 26 31 34 35 43 49 56 64 59 75 96 111 120 136 140 139 139 142 139 139 155 195 231 263 298
333 325 320 308 328 319 356 4 9 16 21 20 12 5 10 12 15 18 16 23 26 27 24 26 50 59 71 60 44 79 135 139 136 139 153 141 137 133 143 170 155 224 282 302
322 321 305 302 320 343 28 20 18 23 31 26 26 29 16 12 6 24 35 31 21 18 25 27 46 66 75 81 84 102 154 149 144 154 158 147 150 141 138 151 192 278 297 294
332 315 309 306 315 6 24 10 1 6 27 26 22 20 16 14 19 45 32 22 21 21 37 52 55 59 101 159 173 168 181 202 204 164 157 163 159 153 159 179 213 227 255 266
337 320 307 321 332 357 3 0 357 7 49 12 6 6 2 358 3 10 5 7 19 24 48 65 65 61 113 162 158 159 166 195 210 160 150 148 149 158 160 196 263 273 273 271
325 309 309 313 317 16 4 355 357 13 3 347 353 352 355 3 5 348 349 7 20 21 44 57 56 58 63 144 152 165 174 199 214 147 134 133 143 162 170 206 244 244 259 271
335 337 339 329 333 1 356 358 22 14 350 353 349 353 7 12 7 2 7 12 17 22 30 49 57 64 72 131 161 161 175 190 137 108 120 132 155 217 183 203 240 250 260 268
4 4 345 350 349 345 4 24 27 9 0 353 348 348 353 355 350 356 10 14 19 20 22 35 70 94 87 108 152 155 164 173 141 112 131 164 177 194 215 237 245 253 260 274
347 358 319 315 336 347 10 22 11 6 358 348 346 344 346 343 340 355 17 24 27 24 17 21 66 87 101 106 130 138 166 178 182 199 205 213 197 195 195 257 272 296 321 319
318 318 312 302 332 345 354 357 356 356 350 345 344 343 347 342 344 11 32 35 35 33 15 16 49 65 87 100 98 156 179 173 188 222 220 227 218 186 169 157 354 359 34 12
305 320 314 324 342 325 327 333 336 340 339 342 340 343 345 343 353 33 50 49 38 35 24 10 26 53 71 114 124 178 168 141 201 235 236 249 226 191 193 172 143 75 166 155